Terug naar catalogus

STARLINK-4799

ActiefCommunicatieVLEO
NORAD 53860·PAYLOAD·🇺🇸 United States

Gelanceerd Sep 19, 2022 vanaf Cape Canaveral Space Force Station

Loading…

Volgende Passages (komende 24 uur)

TLE

VersSource: CelesTrak SupGP

Epoch: Sep 14, 2026, 21:14 UTC

1 53860C 22114AU  26257.88520833 -.00029080  00000+0 -93507-3 0  2575
2 53860  53.1570 144.8047 0001416  91.1968  48.7640 15.31719011    18

Volg STARLINK-4799 in realtime met AllMySat

Download on the App Store